Showing default

GLOBALSTAR M087, 52888

Orbit data source: Space-Track

GLOBALSTAR M087, 52888 is a payload satellite owned by Globalstar (US) in LEO that was launched on Sun, 19 Jun 2022 UTC via an FALCON 9 launch vehicle from the Air Force Eastern Test Range (AFETR). Payload-class satellites include a variety of spacecraft equipped with specific instruments for various scientific and technological missions. These include communications satellites like Starlink; space stations such as the ISS; scientific satellites like the Hubble; Earth observation satellites from companies like Planet Labs, Umbra, and HawkEye 360; GPS; miniature CubeSats for education and research; and military/defense satellites.

Loading next visibility...
Identifier
52888, 2022-064A
Orbit
LEO
Last TLE update
15 hours ago
Origin
Manufacturer
Thales Alenia
Mission
Operational Commercial Communications
Bus & Motor
PRISMA?, LS-400 AOCS?
Mass
715 kg wet, ~500 kg dry
Launch date (UTC)
2022-06-19 (3 years ago)
Launch vehicle
FALCON 9
Launch site
Air Force Eastern Test Range (AFETR)
Object type
Payload
Rocket body
Debris
Shape & HBR
Box + 2 Pan, 12 m
Radar Cross Section
28.800 m², Large (>1 m²)

Expand to show TLE details & history

TLE from 15 hours ago
0 GLOBALSTAR M087
1 52888U 22064A   25191.72896749 -.00000101  00000-0  17440-4 0  9998
2 52888  52.0010  22.0633 0001099  97.8111 262.2881 12.63725665148019
Epoch: 2025-07-10T17:29Z
TLE epoch observation values (Epoch: 2025-07-10T17:29:42.791Z)
Latitude
-0.00002°
Longitude
-169.25608°
Altitude
1,408.401 km
Speed
7.157 km/s
True Right ascension
01h 28m 15s
True Declination
0° 00' 00"
Sunlit
Object was in daylight at epoch
Visualization orbit readout
Latitude
-37.58355°
Longitude
45.6492°
Altitude
1,420.274 km
Speed
7.151 km/s
Apparent Right ascension
12h 42m 08s
Apparent Declination
-54° 40' 46"
Sunlit
Object is in full shadow
Visualization observer readout
Local Sidereal Time
20:17:18
Azimuth
228.011° WSW
Elevation
-44.623°
Doppler factor
1
Orbital elements
Apogee altitude
1,408.852 km
Perigee altitude
1,407.141 km
Semi-major axis
7,786.134 km
Eccentricity
0.00011
Inclination
52.001°
RAAN
22.0633°
Arg. of periapsis
97.8111°
True anomaly
Unknown
Mean anomaly
262.2881°
Eccentric anomaly
Unknown
Mean motion
3.15908 °/min
Orbital period
113.96 mins
BSTAR
0.00001744
Loading maneuver chart data...
Loading SW <> Apogee altitude chart data...
Loading historical data...
Loading historical data...
Loading historical data...
Loading historical data...
Loading historical data...
Loading historical data...
Loading historical data...
Other satellites on launch #64 in the year 2022 (2022-06-19 UTC)

GLOBALSTAR M087 Visibility forecast

Observer location: undefined°, undefined°

Span
Click to sort rows by Start time (UTC) header in descending order
Start Az.
Max El. time (UTC)
Max El. Az.
Max El.
End time (UTC)
End Az.
16 mins2025-07-11 14:28:49.960Z202.358° SSW2025-07-11 14:36:49.960Z132.599° SE37.37°2025-07-11 14:44:49.960Z60.083° ENE
15 mins2025-07-11 16:29:49.960Z255.332° W2025-07-11 16:36:49.960Z342.228° N40.908°2025-07-11 16:44:49.960Z50.715° ENE
14 mins2025-07-11 18:30:49.960Z294.308° NW2025-07-11 18:37:49.960Z359.398° N31.187°2025-07-11 18:44:49.960Z59.58° ENE
15 mins2025-07-11 20:31:49.960Z311.148° NW2025-07-11 20:38:49.960Z18.037° NNE36.881°2025-07-11 20:46:49.960Z94.129° ESE
15 mins2025-07-11 22:31:49.960Z303.833° NW2025-07-11 22:38:49.960Z236.493° WSW43.41°2025-07-11 22:46:49.960Z142.445° SSE
8 mins2025-07-12 00:33:49.960Z269.047° W2025-07-12 00:37:49.960Z237.568° WSW17.056°2025-07-12 00:41:49.960Z207.49° SW
|